Winona, MN

4:13 AM CST on December 13, 2017 (GMT -0600)
Winona Municipal-Conrad

Weather History for KONA - January, 2012

Change the Weather History Date:

Wednesday, January 18, 2012

  Actual Average Record
Temperature  
Mean Temperature 8 °F -  
Max Temperature 21 °F 22 °F 46 °F (2013)
Min Temperature -4 °F 5 °F -14 °F (1993)
Degree Days  
Heating Degree Days 56    
Moisture  
Dew Point 1 °F    
Average Humidity 69    
Maximum Humidity 85    
Minimum Humidity 46    
Precipitation  
Precipitation 0.00 in - - ()
Sea Level Pressure  
Sea Level Pressure 30.01 in    
Wind  
Wind Speed 3 mph (South)    
Max Wind Speed 14 mph    
Max Gust Speed 22 mph    
Visibility 10 miles    
Events Snow    
Averages and records for this station are not official NWS values.
T = Trace of Precipitation, MM = Missing Value Source: NWS Daily Summary

Daily Weather History Graph

Daily Weather History Graph

Search for Another Location

Airport or City:

Trip Planner

Search our weather history database for the weather conditions in past years. The results will help you decide how hot, cold, wet, or windy it might be!

Date:

Astronomy

Jan. 18, 2012 Rise Set
Actual Time 7:37 AM CST 4:57 PM CST
Civil Twilight 7:05 AM CST 5:29 PM CST
Nautical Twilight 6:29 AM CST 6:05 PM CST
Astronomical Twilight 5:55 AM CST 6:39 PM CST
Moon 3:07 AM CST (1/18) 12:35 PM CST (1/18)
Length of Visible Light 10h 24m
Length of Day
9h 20m
Waning Crescent, 24% of the Moon is Illuminated
Jan 18
Waning Crescent
Jan 23
New
Jan 30
First Quarter
Feb 7
Full
Feb 14
Last Quarter

Hourly Weather History & Observations

Time (CST) Temp. Windchill Dew Point Humidity Pressure Visibility Wind Dir Wind Speed Gust Speed Precip Events Conditions
12:17 AM 3.2 °F - -4.0 °F 72% 30.27 in 10.0 mi Calm Calm - N/A   Clear
12:36 AM 1.4 °F -9.9 °F -5.8 °F 72% 30.27 in 10.0 mi NW 5.8 mph - N/A   Clear
12:57 AM 3.2 °F - -4.0 °F 72% 30.26 in 10.0 mi Calm Calm - N/A   Clear
1:17 AM 1.4 °F - -4.0 °F 78% 30.27 in 10.0 mi Calm Calm - N/A   Clear
1:36 AM 1.4 °F - -5.8 °F 72% 30.26 in 10.0 mi Calm Calm - N/A   Clear
1:57 AM -0.4 °F - -5.8 °F 78% 30.26 in 10.0 mi Calm Calm - N/A   Clear
2:17 AM -0.4 °F - -4.0 °F 85% 30.25 in 10.0 mi Calm Calm - N/A   Clear
2:36 AM -0.4 °F - -4.0 °F 85% 30.25 in 10.0 mi Calm Calm - N/A   Clear
2:57 AM -0.4 °F - -5.8 °F 78% 30.26 in 10.0 mi Calm Calm - N/A   Clear
3:36 AM -0.4 °F - -5.8 °F 78% 30.24 in 10.0 mi Calm Calm - N/A   Clear
3:57 AM 1.4 °F - -5.8 °F 72% 30.23 in 10.0 mi Calm Calm - N/A   Clear
4:16 AM -2.2 °F - -7.6 °F 78% 30.22 in 10.0 mi Calm Calm - N/A   Clear
4:37 AM -2.2 °F - -5.8 °F 85% 30.22 in 10.0 mi Calm Calm - N/A   Clear
4:57 AM -2.2 °F - -5.8 °F 85% 30.22 in 10.0 mi Calm Calm - N/A   Clear
5:17 AM -0.4 °F - -5.8 °F 78% 30.20 in 10.0 mi Calm Calm - N/A   Clear
5:37 AM -0.4 °F - -5.8 °F 78% 30.20 in 10.0 mi Calm Calm - N/A   Clear
5:57 AM -4.0 °F -16.3 °F -7.6 °F 85% 30.19 in 10.0 mi SSE 5.8 mph - N/A   Clear
6:16 AM -0.4 °F - -5.8 °F 78% 30.19 in 10.0 mi Calm Calm - N/A   Clear
6:37 AM -2.2 °F - -7.6 °F 78% 30.17 in 10.0 mi Calm Calm - N/A   Clear
6:57 AM -2.2 °F - -5.8 °F 85% 30.16 in 10.0 mi Calm Calm - N/A   Clear
7:17 AM -2.2 °F - -5.8 °F 85% 30.16 in 10.0 mi Calm Calm - N/A   Clear
7:37 AM -0.4 °F - -5.8 °F 78% 30.16 in 10.0 mi Calm Calm - N/A   Clear
7:56 AM -0.4 °F -8.3 °F -5.8 °F 78% 30.16 in 10.0 mi SE 3.5 mph - N/A   Clear
8:17 AM -0.4 °F -12.0 °F -5.8 °F 78% 30.15 in 10.0 mi SE 5.8 mph - N/A   Clear
8:37 AM 1.4 °F -11.3 °F -4.0 °F 78% 30.13 in 10.0 mi SE 6.9 mph - N/A   Clear
8:56 AM 3.2 °F -10.3 °F -2.2 °F 78% 30.12 in 10.0 mi SE 8.1 mph - N/A   Clear
9:17 AM 6.8 °F -5.9 °F -0.4 °F 72% 30.11 in 10.0 mi SE 8.1 mph - N/A   Clear
9:37 AM 6.8 °F -5.9 °F -0.4 °F 72% 30.09 in 10.0 mi SSE 8.1 mph - N/A   Clear
9:57 AM 8.6 °F -4.7 °F -0.4 °F 67% 30.09 in 10.0 mi SSE 9.2 mph - N/A   Mostly Cloudy
10:17 AM 8.6 °F 0.1 °F -0.4 °F 67% 30.08 in 10.0 mi SSE 4.6 mph - N/A   Overcast
10:37 AM 12.2 °F 4.3 °F 1.4 °F 62% 30.07 in 10.0 mi South 4.6 mph - N/A   Overcast
10:57 AM 12.2 °F 0.7 °F 1.4 °F 62% 30.05 in 10.0 mi South 8.1 mph - N/A   Overcast
11:17 AM 12.2 °F 2.9 °F 1.4 °F 62% 30.03 in 10.0 mi South 5.8 mph - N/A   Overcast
11:37 AM 12.2 °F 0.7 °F 1.4 °F 62% 30.01 in 10.0 mi South 8.1 mph - N/A   Overcast
11:57 AM 14.0 °F 5.1 °F 3.2 °F 62% 29.98 in 10.0 mi South 5.8 mph - N/A   Overcast
12:16 PM 14.0 °F 0.5 °F 1.4 °F 57% 29.96 in 10.0 mi SSE 11.5 mph - N/A   Scattered Clouds
12:37 PM 17.6 °F 5.7 °F 3.2 °F 53% 29.93 in 10.0 mi SSE 10.4 mph - N/A   Scattered Clouds
12:57 PM 17.6 °F 3.7 °F 3.2 °F 53% 29.90 in 10.0 mi South 13.8 mph 20.7 mph N/A   Scattered Clouds
1:16 PM 19.4 °F 9.5 °F 3.2 °F 49% 29.89 in 10.0 mi South 8.1 mph 18.4 mph N/A   Clear
1:37 PM 19.4 °F 8.6 °F 3.2 °F 49% 29.87 in 10.0 mi SSW 9.2 mph 17.3 mph N/A   Clear
1:57 PM 21.2 °F 10.1 °F 3.2 °F 46% 29.85 in 10.0 mi South 10.4 mph 16.1 mph N/A   Clear
2:16 PM 21.2 °F 13.6 °F 5.0 °F 50% 29.85 in 10.0 mi South 5.8 mph - N/A   Clear
2:37 PM 21.2 °F 8.9 °F 3.2 °F 46% 29.84 in 10.0 mi SSW 12.7 mph 20.7 mph N/A   Clear
2:57 PM 19.4 °F 7.9 °F 3.2 °F 49% 29.83 in 10.0 mi SSW 10.4 mph 21.9 mph N/A   Clear
3:16 PM 19.4 °F 8.6 °F 5.0 °F 54% 29.82 in 10.0 mi SW 9.2 mph 17.3 mph N/A   Clear
3:37 PM 19.4 °F 8.6 °F 5.0 °F 54% 29.81 in 10.0 mi South 9.2 mph - N/A   Clear
3:57 PM 19.4 °F 8.6 °F 5.0 °F 54% 29.82 in 10.0 mi SSW 9.2 mph 18.4 mph N/A   Scattered Clouds
4:17 PM 19.4 °F 10.4 °F 6.8 °F 58% 29.81 in 10.0 mi South 6.9 mph - N/A   Mostly Cloudy
4:37 PM 19.4 °F 9.5 °F 8.6 °F 63% 29.79 in 10.0 mi South 8.1 mph - N/A   Overcast
4:57 PM 19.4 °F 12.8 °F 8.6 °F 63% 29.80 in 10.0 mi SSW 4.6 mph - N/A   Mostly Cloudy
5:17 PM 17.6 °F 12.3 °F 6.8 °F 63% 29.79 in 10.0 mi SSW 3.5 mph - N/A   Scattered Clouds
5:21 PM 17.6 °F 8.2 °F 8.6 °F 68% 29.79 in 10.0 mi SSW 6.9 mph - N/A   Scattered Clouds
5:57 PM 17.6 °F 9.3 °F 8.6 °F 68% 29.77 in 10.0 mi South 5.8 mph - N/A   Clear
6:17 PM 19.4 °F 14.3 °F 8.6 °F 63% 29.76 in 10.0 mi SSW 3.5 mph - N/A   Clear
6:37 PM 19.4 °F 14.3 °F 8.6 °F 63% 29.75 in 10.0 mi SSW 3.5 mph - N/A   Clear
6:57 PM 19.4 °F 14.3 °F 8.6 °F 63% 29.75 in 10.0 mi SSW 3.5 mph - N/A   Scattered Clouds
7:17 PM 19.4 °F 10.4 °F 10.4 °F 68% 29.74 in 10.0 mi SW 6.9 mph - N/A   Scattered Clouds
7:36 PM 19.4 °F 9.5 °F 10.4 °F 68% 29.74 in 10.0 mi SSW 8.1 mph 16.1 mph N/A   Mostly Cloudy
7:57 PM 19.4 °F 10.4 °F 12.2 °F 74% 29.74 in 2.5 mi WSW 6.9 mph - N/A Snow Light Snow
8:16 PM 19.4 °F 10.4 °F 14.0 °F 80% 29.73 in 2.0 mi WSW 6.9 mph - N/A Snow Light Snow
8:37 PM 19.4 °F 12.8 °F 14.0 °F 80% 29.72 in 3.0 mi WSW 4.6 mph - N/A Snow Light Snow
8:57 PM 21.2 °F 13.6 °F 15.8 °F 80% 29.72 in 10.0 mi WSW 5.8 mph - N/A   Overcast
9:37 PM 19.4 °F 4.1 °F 10.4 °F 68% 29.76 in 10.0 mi WNW 18.4 mph 26.5 mph N/A   Mostly Cloudy
9:57 PM 14.0 °F -5.8 °F 5.0 °F 67% 29.80 in 7.0 mi NW 26.5 mph 33.4 mph N/A   Scattered Clouds
10:17 PM 12.2 °F -2.5 °F 1.4 °F 62% 29.81 in 10.0 mi WNW 12.7 mph 28.8 mph N/A   Scattered Clouds
10:37 PM 10.4 °F -7.2 °F 1.4 °F 67% 29.82 in 10.0 mi WNW 17.3 mph 24.2 mph N/A   Mostly Cloudy
10:57 PM 8.6 °F -12.7 °F -0.4 °F 67% 29.84 in 10.0 mi WNW 25.3 mph 36.8 mph N/A   Overcast
11:17 PM 6.8 °F -10.0 °F -4.0 °F 61% 29.85 in 10.0 mi WNW 13.8 mph 26.5 mph N/A   Scattered Clouds
11:37 PM 6.8 °F -10.0 °F -2.2 °F 67% 29.86 in 10.0 mi WNW 13.8 mph 20.7 mph N/A   Clear
11:56 PM 6.8 °F -11.8 °F -4.0 °F 61% 29.87 in 10.0 mi WNW 17.3 mph 23.0 mph N/A   Clear